RYR8HF EGSS-EVRA

Flight info

Callsign RYR8HF
Flight time 2h 5m
Altitude 39000
Route CLN P44 SOMVA DCT MAVAS DCT ALASA DCT KOLJA DCT NINTA DCT ADAXA M405 ORVIX
Aircraft B38M/M-SDE1FGHILORVWXY/HB1

Departure

Time 2026-05-06 16:21
Airport London Stansted Airport (EGSS)

Arrival

Time 2026-05-06 18:26
Airport Riga International Airport (EVRA)
Time Latitude Longitude Altitude Speed Heading
2026-05-06 15:47 51.89324 0.26090 351 ft 0 kts 223°
2026-05-06 15:47 51.89325 0.26090 351 ft 0 kts 223°
2026-05-06 15:54 51.89325 0.26091 351 ft 0 kts 223°
2026-05-06 16:08 51.89334 0.26104 361 ft 4 kts 223°
2026-05-06 16:08 51.89353 0.26133 354 ft 4 kts 235°
2026-05-06 16:08 51.89356 0.26161 358 ft 4 kts 309°
2026-05-06 16:09 51.89342 0.26186 361 ft 3 kts 313°
2026-05-06 16:09 51.89339 0.26192 361 ft 0 kts 313°
2026-05-06 16:12 51.89340 0.26190 361 ft 1 kts 313°
2026-05-06 16:13 51.89356 0.26161 358 ft 8 kts 313°
2026-05-06 16:13 51.89424 0.26046 351 ft 21 kts 314°
2026-05-06 16:13 51.89525 0.25870 355 ft 15 kts 319°
2026-05-06 16:13 51.89609 0.25760 356 ft 16 kts 298°
2026-05-06 16:14 51.89567 0.25637 351 ft 14 kts 223°
2026-05-06 16:14 51.89490 0.25522 357 ft 16 kts 223°
2026-05-06 16:14 51.89402 0.25389 351 ft 18 kts 223°
2026-05-06 16:14 51.89299 0.25235 354 ft 22 kts 223°
2026-05-06 16:15 51.89199 0.25013 356 ft 27 kts 228°
2026-05-06 16:15 51.89052 0.24793 354 ft 29 kts 223°
2026-05-06 16:15 51.88903 0.24569 356 ft 30 kts 222°
2026-05-06 16:15 51.88746 0.24334 351 ft 31 kts 223°
2026-05-06 16:16 51.88599 0.24112 356 ft 26 kts 223°
2026-05-06 16:16 51.88509 0.23978 355 ft 27 kts 223°
2026-05-06 16:16 51.88366 0.23763 355 ft 29 kts 223°
2026-05-06 16:16 51.88214 0.23536 351 ft 30 kts 223°
2026-05-06 16:17 51.88055 0.23298 351 ft 32 kts 223°
2026-05-06 16:17 51.87900 0.23065 354 ft 25 kts 223°
2026-05-06 16:17 51.87779 0.22882 355 ft 25 kts 223°
2026-05-06 16:17 51.87655 0.22698 354 ft 24 kts 223°
2026-05-06 16:18 51.87539 0.22524 352 ft 20 kts 222°
2026-05-06 16:18 51.87544 0.22383 350 ft 15 kts 314°
2026-05-06 16:18 51.87576 0.22328 347 ft 0 kts 315°
2026-05-06 16:19 51.87592 0.22304 336 ft 8 kts 319°
2026-05-06 16:19 51.87663 0.22250 340 ft 14 kts 353°
2026-05-06 16:19 51.87737 0.22335 350 ft 11 kts 44°
2026-05-06 16:19 51.87758 0.22366 343 ft 0 kts 42°
2026-05-06 16:20 51.87758 0.22367 343 ft 1 kts 42°
2026-05-06 16:20 51.87816 0.22452 353 ft 35 kts 43°
2026-05-06 16:20 51.88190 0.23015 335 ft 109 kts 43°
2026-05-06 16:21 51.88881 0.24062 457 ft 153 kts 42°
2026-05-06 16:21 51.89678 0.25264 1195 ft 160 kts 40°
2026-05-06 16:21 51.90500 0.26493 2037 ft 161 kts 40°
2026-05-06 16:21 51.91319 0.27881 2514 ft 184 kts 57°
2026-05-06 16:22 51.91757 0.29907 3119 ft 201 kts 77°
2026-05-06 16:22 51.91782 0.32253 3753 ft 216 kts 94°
2026-05-06 16:22 51.91569 0.34763 4312 ft 234 kts 95°
2026-05-06 16:22 51.91371 0.37493 4851 ft 253 kts 90°
2026-05-06 16:23 51.91598 0.40362 5466 ft 263 kts 76°
2026-05-06 16:23 51.91973 0.43256 6407 ft 264 kts 78°
2026-05-06 16:23 51.92329 0.46209 7178 ft 270 kts 78°
2026-05-06 16:23 51.92684 0.49243 7907 ft 276 kts 78°
2026-05-06 16:24 51.93037 0.52332 8647 ft 282 kts 78°
2026-05-06 16:24 51.93393 0.55489 9419 ft 288 kts 78°
2026-05-06 16:24 51.93752 0.58713 10140 ft 294 kts 78°
2026-05-06 16:24 51.94122 0.62062 10583 ft 310 kts 79°
2026-05-06 16:25 51.94509 0.65586 11038 ft 324 kts 79°
2026-05-06 16:25 51.94905 0.69192 11643 ft 332 kts 79°
2026-05-06 16:25 51.95311 0.72901 12415 ft 336 kts 78°
2026-05-06 16:25 51.95722 0.76667 13194 ft 341 kts 79°
2026-05-06 16:26 51.96136 0.80470 13968 ft 345 kts 79°
2026-05-06 16:26 51.96556 0.84332 14697 ft 349 kts 79°
2026-05-06 16:26 51.96977 0.88225 15454 ft 352 kts 79°
2026-05-06 16:26 51.97401 0.92161 16217 ft 356 kts 79°
2026-05-06 16:27 51.97829 0.96142 16959 ft 360 kts 79°
2026-05-06 16:27 51.98260 1.00173 17694 ft 364 kts 79°
2026-05-06 16:27 51.98695 1.04245 18375 ft 368 kts 80°
2026-05-06 16:27 51.99132 1.08355 18995 ft 371 kts 80°
2026-05-06 16:28 51.99571 1.12496 19600 ft 375 kts 80°
2026-05-06 16:28 52.00008 1.16629 20192 ft 378 kts 80°
2026-05-06 16:28 52.00453 1.20859 20773 ft 381 kts 80°
2026-05-06 16:28 52.00900 1.25115 21370 ft 385 kts 80°
2026-05-06 16:29 52.01349 1.29415 21933 ft 388 kts 80°
2026-05-06 16:29 52.01802 1.33762 22517 ft 392 kts 81°
2026-05-06 16:29 52.02258 1.38157 23074 ft 395 kts 81°
2026-05-06 16:29 52.02714 1.42572 23622 ft 398 kts 81°
2026-05-06 16:30 52.03168 1.46988 24064 ft 402 kts 81°
2026-05-06 16:30 52.03475 1.49973 24384 ft 403 kts 81°
2026-05-06 16:30 52.04093 1.56016 24994 ft 406 kts 81°
2026-05-06 16:30 52.04556 1.60565 25447 ft 409 kts 81°
2026-05-06 16:31 52.05020 1.65150 25879 ft 412 kts 81°
2026-05-06 16:31 52.05484 1.69746 26319 ft 414 kts 82°
2026-05-06 16:31 52.05945 1.74329 26749 ft 416 kts 82°
2026-05-06 16:31 52.06412 1.78994 27173 ft 419 kts 82°
2026-05-06 16:32 52.06880 1.83685 27586 ft 422 kts 82°
2026-05-06 16:32 52.07349 1.88412 27997 ft 424 kts 82°
2026-05-06 16:32 52.07863 1.93152 28374 ft 427 kts 76°
2026-05-06 16:32 52.08991 1.97637 28794 ft 430 kts 62°
2026-05-06 16:33 52.10405 2.01951 29134 ft 434 kts 63°
2026-05-06 16:33 52.11801 2.06264 29497 ft 436 kts 63°
2026-05-06 16:33 52.13232 2.10644 29880 ft 438 kts 63°
2026-05-06 16:34 52.16120 2.19449 30516 ft 443 kts 63°
2026-05-06 16:34 52.17574 2.23890 30836 ft 445 kts 63°
2026-05-06 16:34 52.19033 2.28353 31121 ft 447 kts 63°
2026-05-06 16:34 52.20493 2.32827 31420 ft 449 kts 63°
2026-05-06 16:35 52.21961 2.37334 31727 ft 451 kts 63°
2026-05-06 16:35 52.23423 2.41830 32012 ft 453 kts 63°
2026-05-06 16:35 52.24899 2.46378 32298 ft 455 kts 63°
2026-05-06 16:35 52.26384 2.50962 32587 ft 457 kts 63°
2026-05-06 16:36 52.27870 2.55557 32860 ft 459 kts 63°
2026-05-06 16:36 52.29365 2.60186 33143 ft 461 kts 63°
2026-05-06 16:36 52.30780 2.64900 33414 ft 461 kts 71°
2026-05-06 16:36 52.31664 2.69848 33794 ft 459 kts 76°
2026-05-06 16:37 52.32562 2.74872 34083 ft 459 kts 75°
2026-05-06 16:37 52.33454 2.79887 34369 ft 460 kts 75°
2026-05-06 16:37 52.34341 2.84925 34636 ft 460 kts 75°
2026-05-06 16:37 52.35225 2.89971 34904 ft 460 kts 75°
2026-05-06 16:38 52.36106 2.95016 35163 ft 461 kts 76°
2026-05-06 16:38 52.36976 3.00013 35428 ft 461 kts 76°
2026-05-06 16:38 52.37853 3.05071 35682 ft 462 kts 76°
2026-05-06 16:38 52.38731 3.10136 35947 ft 462 kts 76°
2026-05-06 16:39 52.39668 3.15179 36194 ft 464 kts 68°
2026-05-06 16:39 52.41215 3.19809 36466 ft 464 kts 57°
2026-05-06 16:39 52.42980 3.24260 36645 ft 466 kts 58°
2026-05-06 16:39 52.44741 3.28712 36853 ft 466 kts 58°
2026-05-06 16:40 52.46521 3.33166 37097 ft 467 kts 57°
2026-05-06 16:40 52.48306 3.37615 37325 ft 467 kts 57°
2026-05-06 16:40 52.50068 3.42009 37547 ft 467 kts 57°
2026-05-06 16:40 52.51855 3.46470 37764 ft 467 kts 57°
2026-05-06 16:41 52.53640 3.50934 37932 ft 468 kts 57°
2026-05-06 16:41 52.57214 3.59893 37923 ft 467 kts 57°
2026-05-06 16:42 52.60778 3.68862 37933 ft 467 kts 57°
2026-05-06 16:42 52.64326 3.77818 37928 ft 468 kts 58°
2026-05-06 16:43 52.67853 3.86756 37936 ft 468 kts 58°
2026-05-06 16:43 52.71400 3.95773 37938 ft 468 kts 58°
2026-05-06 16:44 52.74937 4.04798 37939 ft 468 kts 58°
2026-05-06 16:44 52.78473 4.13855 37939 ft 469 kts 58°
2026-05-06 16:45 52.82004 4.22930 37942 ft 469 kts 58°
2026-05-06 16:45 52.85511 4.31975 37935 ft 469 kts 58°
2026-05-06 16:46 52.89032 4.41089 37939 ft 470 kts 58°
2026-05-06 16:46 52.92531 4.50178 37940 ft 470 kts 58°
2026-05-06 16:47 52.96046 4.59343 37942 ft 471 kts 58°
2026-05-06 16:47 52.99555 4.68525 37936 ft 471 kts 58°
2026-05-06 16:48 53.03058 4.77725 37937 ft 471 kts 58°
2026-05-06 16:48 53.06559 4.86955 37931 ft 472 kts 58°
2026-05-06 16:49 53.10053 4.96199 37940 ft 472 kts 59°
2026-05-06 16:49 53.13529 5.05427 37936 ft 472 kts 59°
2026-05-06 16:50 53.17018 5.14726 37941 ft 473 kts 59°
2026-05-06 16:50 53.20503 5.24049 37932 ft 473 kts 59°
2026-05-06 16:51 53.23977 5.33377 37935 ft 474 kts 59°
2026-05-06 16:51 53.27456 5.42752 37938 ft 474 kts 59°
2026-05-06 16:52 53.30905 5.52083 37940 ft 474 kts 59°
2026-05-06 16:52 53.34368 5.61488 37934 ft 475 kts 59°
2026-05-06 16:53 53.37840 5.70950 37939 ft 476 kts 59°
2026-05-06 16:53 53.41295 5.80402 37937 ft 476 kts 59°
2026-05-06 16:54 53.44724 5.89820 37937 ft 476 kts 59°
2026-05-06 16:54 53.48176 5.99335 37933 ft 476 kts 59°
2026-05-06 16:55 53.51603 6.08817 37934 ft 477 kts 59°
2026-05-06 16:55 53.55042 6.18370 37931 ft 477 kts 59°
2026-05-06 16:56 53.58474 6.27940 37936 ft 478 kts 59°
2026-05-06 16:56 53.61902 6.37538 37929 ft 479 kts 60°
2026-05-06 16:57 53.65337 6.47188 37932 ft 479 kts 60°
2026-05-06 16:57 53.68767 6.56866 37929 ft 479 kts 60°
2026-05-06 16:58 53.72154 6.66457 37925 ft 479 kts 60°
2026-05-06 16:58 53.75565 6.76155 37925 ft 480 kts 60°
2026-05-06 16:59 53.78970 6.85875 37924 ft 480 kts 60°
2026-05-06 16:59 53.82371 6.95620 37922 ft 481 kts 60°
2026-05-06 17:00 53.85773 7.05407 37924 ft 482 kts 60°
2026-05-06 17:00 53.89158 7.15186 37920 ft 481 kts 60°
2026-05-06 17:01 53.92525 7.24948 37921 ft 481 kts 60°
2026-05-06 17:01 53.95899 7.34772 37921 ft 482 kts 60°
2026-05-06 17:02 53.99270 7.44627 37920 ft 482 kts 60°
2026-05-06 17:02 54.02071 7.52843 37909 ft 482 kts 60°
2026-05-06 17:03 54.05979 7.64355 37918 ft 483 kts 60°
2026-05-06 17:03 54.08774 7.72619 37928 ft 483 kts 60°
2026-05-06 17:04 54.12127 7.82576 37914 ft 483 kts 60°
2026-05-06 17:04 54.15465 7.92523 37920 ft 483 kts 60°
2026-05-06 17:05 54.18791 8.02478 37911 ft 482 kts 60°
2026-05-06 17:05 54.22095 8.12408 37914 ft 483 kts 60°
2026-05-06 17:06 54.25403 8.22388 37908 ft 483 kts 60°
2026-05-06 17:06 54.28709 8.32405 37912 ft 483 kts 60°
2026-05-06 17:07 54.32010 8.42449 37908 ft 483 kts 60°
2026-05-06 17:07 54.35295 8.52482 37908 ft 483 kts 60°
2026-05-06 17:08 54.38575 8.62544 37905 ft 483 kts 60°
2026-05-06 17:08 54.41850 8.72635 37912 ft 483 kts 60°
2026-05-06 17:09 54.45113 8.82727 37906 ft 483 kts 61°
2026-05-06 17:09 54.48371 8.92847 37912 ft 483 kts 61°
2026-05-06 17:10 54.51621 9.02984 37907 ft 484 kts 61°
2026-05-06 17:10 54.54865 9.13145 37913 ft 484 kts 61°
2026-05-06 17:11 54.58081 9.23264 37909 ft 483 kts 61°
2026-05-06 17:11 54.61309 9.33450 37911 ft 483 kts 61°
2026-05-06 17:12 54.64513 9.43598 37909 ft 483 kts 61°
2026-05-06 17:12 54.67728 9.53823 37913 ft 483 kts 61°
2026-05-06 17:13 54.70929 9.64046 37911 ft 483 kts 61°
2026-05-06 17:13 54.74126 9.74298 37906 ft 483 kts 61°
2026-05-06 17:14 54.77298 9.84511 37907 ft 483 kts 61°
2026-05-06 17:14 54.80472 9.94799 37914 ft 483 kts 64°
2026-05-06 17:15 54.82829 10.05685 37901 ft 483 kts 70°
2026-05-06 17:15 54.85089 10.16617 37915 ft 484 kts 71°
2026-05-06 17:16 54.87346 10.27622 37919 ft 484 kts 71°
2026-05-06 17:16 54.89596 10.38655 37916 ft 484 kts 71°
2026-05-06 17:17 54.91834 10.49689 37925 ft 484 kts 71°
2026-05-06 17:17 54.94063 10.60736 37920 ft 484 kts 71°
2026-05-06 17:18 54.96283 10.71806 37929 ft 484 kts 71°
2026-05-06 17:18 54.98480 10.82822 37923 ft 484 kts 71°
2026-05-06 17:19 55.00680 10.93914 37917 ft 484 kts 71°
2026-05-06 17:19 55.02872 11.05028 37927 ft 485 kts 71°
2026-05-06 17:20 55.05056 11.16166 37931 ft 485 kts 71°
2026-05-06 17:20 55.07230 11.27318 37935 ft 485 kts 72°
2026-05-06 17:21 55.09380 11.38412 37932 ft 485 kts 72°
2026-05-06 17:21 55.11534 11.49589 37946 ft 485 kts 72°
2026-05-06 17:22 55.13676 11.60771 37940 ft 485 kts 72°
2026-05-06 17:22 55.15808 11.71965 37952 ft 485 kts 72°
2026-05-06 17:23 55.17935 11.83197 37948 ft 485 kts 72°
2026-05-06 17:23 55.20037 11.94365 37957 ft 485 kts 72°
2026-05-06 17:24 55.22137 12.05587 37953 ft 485 kts 72°
2026-05-06 17:24 55.24230 12.16843 37962 ft 485 kts 72°
2026-05-06 17:25 55.26317 12.28088 37962 ft 485 kts 72°
2026-05-06 17:25 55.28466 12.39409 37960 ft 485 kts 72°
2026-05-06 17:26 55.30571 12.50603 37962 ft 485 kts 72°
2026-05-06 17:26 55.32680 12.61887 37967 ft 486 kts 72°
2026-05-06 17:27 55.34779 12.73189 37964 ft 486 kts 72°
2026-05-06 17:27 55.36854 12.84425 37966 ft 486 kts 72°
2026-05-06 17:28 55.38931 12.95737 37954 ft 486 kts 72°
2026-05-06 17:28 55.40999 13.07074 37951 ft 486 kts 73°
2026-05-06 17:29 55.43058 13.18434 38245 ft 487 kts 73°
2026-05-06 17:29 55.44086 13.24128 38427 ft 488 kts 73°
2026-05-06 17:29 55.45113 13.29835 38620 ft 488 kts 73°
2026-05-06 17:29 55.46136 13.35539 38776 ft 489 kts 73°
2026-05-06 17:30 55.47160 13.41262 38911 ft 488 kts 73°
2026-05-06 17:30 55.49181 13.52624 38943 ft 489 kts 73°
2026-05-06 17:31 55.51204 13.64059 38944 ft 488 kts 73°
2026-05-06 17:31 55.53218 13.75519 38950 ft 488 kts 73°
2026-05-06 17:32 55.55216 13.86958 38958 ft 485 kts 74°
2026-05-06 17:32 55.57193 13.98353 38961 ft 485 kts 74°
2026-05-06 17:33 55.59149 14.09703 38958 ft 485 kts 75°
2026-05-06 17:33 55.61104 14.21119 38955 ft 485 kts 75°
2026-05-06 17:34 55.63050 14.32551 38959 ft 485 kts 75°
2026-05-06 17:34 55.64987 14.44005 38956 ft 485 kts 75°
2026-05-06 17:35 55.66858 14.55140 38955 ft 485 kts 75°
2026-05-06 17:35 55.68773 14.66609 38953 ft 485 kts 75°
2026-05-06 17:36 55.71625 14.83829 38952 ft 485 kts 75°
2026-05-06 17:36 55.73516 14.95342 38953 ft 486 kts 75°
2026-05-06 17:37 55.75396 15.06862 38949 ft 486 kts 75°
2026-05-06 17:37 55.77263 15.18390 38952 ft 486 kts 76°
2026-05-06 17:38 55.79124 15.29952 38951 ft 486 kts 76°
2026-05-06 17:38 55.80974 15.41519 38947 ft 486 kts 76°
2026-05-06 17:39 55.82799 15.53018 38948 ft 486 kts 76°
2026-05-06 17:39 55.84629 15.64619 38944 ft 486 kts 76°
2026-05-06 17:40 55.86448 15.76239 38950 ft 486 kts 76°
2026-05-06 17:40 55.88252 15.87836 38946 ft 486 kts 76°
2026-05-06 17:41 55.90050 15.99477 38945 ft 486 kts 76°
2026-05-06 17:41 55.91834 16.11111 38945 ft 487 kts 76°
2026-05-06 17:42 55.93597 16.22690 38945 ft 487 kts 76°
2026-05-06 17:42 55.95362 16.34364 38943 ft 487 kts 76°
2026-05-06 17:43 55.97116 16.46047 38949 ft 487 kts 77°
2026-05-06 17:43 55.98860 16.57749 38949 ft 487 kts 77°
2026-05-06 17:44 56.00580 16.69378 38947 ft 487 kts 77°
2026-05-06 17:44 56.02300 16.81085 38949 ft 487 kts 77°
2026-05-06 17:45 56.04012 16.92831 38949 ft 487 kts 77°
2026-05-06 17:45 56.05427 17.02607 38947 ft 487 kts 77°
2026-05-06 17:46 56.07118 17.14359 38942 ft 487 kts 77°
2026-05-06 17:46 56.08800 17.26141 38942 ft 488 kts 77°
2026-05-06 17:47 56.10470 17.37928 38944 ft 488 kts 77°
2026-05-06 17:47 56.12121 17.49672 38942 ft 488 kts 77°
2026-05-06 17:48 56.13767 17.61471 38942 ft 488 kts 77°
2026-05-06 17:48 56.15405 17.73303 38940 ft 488 kts 78°
2026-05-06 17:49 56.17030 17.85133 38940 ft 488 kts 78°
2026-05-06 17:49 56.18647 17.96993 38938 ft 489 kts 78°
2026-05-06 17:50 56.20251 18.08871 38935 ft 489 kts 78°
2026-05-06 17:50 56.21683 18.20753 38934 ft 489 kts 80°
2026-05-06 17:51 56.23062 18.32750 38932 ft 489 kts 80°
2026-05-06 17:51 56.24433 18.44722 38935 ft 489 kts 80°
2026-05-06 17:52 56.25793 18.56710 38934 ft 489 kts 80°
2026-05-06 17:52 56.27149 18.68780 38930 ft 489 kts 81°
2026-05-06 17:53 56.28487 18.80803 38932 ft 489 kts 81°
2026-05-06 17:53 56.29813 18.92823 38930 ft 489 kts 81°
2026-05-06 17:54 56.31128 19.04856 38934 ft 489 kts 81°
2026-05-06 17:54 56.32424 19.16835 38934 ft 490 kts 81°
2026-05-06 17:55 56.33715 19.28884 38932 ft 489 kts 81°
2026-05-06 17:55 56.34995 19.40945 38928 ft 489 kts 81°
2026-05-06 17:56 56.36265 19.53029 38926 ft 490 kts 81°
2026-05-06 17:56 56.37515 19.65051 38926 ft 489 kts 82°
2026-05-06 17:57 56.38749 19.77034 38331 ft 481 kts 82°
2026-05-06 17:57 56.39355 19.82963 37719 ft 478 kts 82°
2026-05-06 17:57 56.39954 19.88846 37153 ft 475 kts 82°
2026-05-06 17:58 56.40545 19.94687 36653 ft 471 kts 82°
2026-05-06 17:58 56.41129 20.00489 36162 ft 467 kts 82°
2026-05-06 17:58 56.41706 20.06248 35656 ft 464 kts 82°
2026-05-06 17:58 56.42280 20.11995 35153 ft 462 kts 83°
2026-05-06 17:59 56.42845 20.17686 34647 ft 459 kts 83°
2026-05-06 17:59 56.43404 20.23354 34146 ft 457 kts 83°
2026-05-06 17:59 56.43960 20.29005 33580 ft 455 kts 83°
2026-05-06 17:59 56.44510 20.34633 33021 ft 453 kts 83°
2026-05-06 18:00 56.45053 20.40215 32529 ft 449 kts 83°
2026-05-06 18:00 56.45584 20.45693 32062 ft 445 kts 83°
2026-05-06 18:00 56.46114 20.51191 31578 ft 441 kts 83°
2026-05-06 18:00 56.46636 20.56641 31097 ft 438 kts 83°
2026-05-06 18:01 56.47153 20.62059 30622 ft 436 kts 83°
2026-05-06 18:01 56.47666 20.67456 30164 ft 433 kts 84°
2026-05-06 18:01 56.48173 20.72820 29643 ft 431 kts 84°
2026-05-06 18:01 56.48675 20.78159 29143 ft 427 kts 84°
2026-05-06 18:02 56.49168 20.83429 28711 ft 423 kts 84°
2026-05-06 18:02 56.49656 20.88665 28275 ft 419 kts 84°
2026-05-06 18:02 56.50137 20.93852 27840 ft 416 kts 84°
2026-05-06 18:02 56.50612 20.98997 27413 ft 413 kts 84°
2026-05-06 18:03 56.51077 21.04053 26992 ft 410 kts 84°
2026-05-06 18:03 56.51542 21.09136 26567 ft 407 kts 84°
2026-05-06 18:03 56.52001 21.14186 26156 ft 405 kts 84°
2026-05-06 18:03 56.52457 21.19215 25744 ft 403 kts 84°
2026-05-06 18:04 56.52908 21.24218 25337 ft 401 kts 84°
2026-05-06 18:04 56.53355 21.29201 24923 ft 399 kts 84°
2026-05-06 18:04 56.53798 21.34165 24518 ft 398 kts 85°
2026-05-06 18:04 56.54237 21.39101 24110 ft 396 kts 85°
2026-05-06 18:05 56.54668 21.43976 23709 ft 395 kts 85°
2026-05-06 18:05 56.55101 21.48896 23268 ft 394 kts 85°
2026-05-06 18:05 56.55530 21.53787 22823 ft 393 kts 85°
2026-05-06 18:05 56.55956 21.58667 22416 ft 390 kts 85°
2026-05-06 18:06 56.56376 21.63506 22025 ft 387 kts 85°
2026-05-06 18:06 56.56791 21.68312 21633 ft 384 kts 85°
2026-05-06 18:06 56.57203 21.73098 21239 ft 382 kts 85°
2026-05-06 18:06 56.57609 21.77846 20846 ft 380 kts 85°
2026-05-06 18:07 56.57993 21.82348 20491 ft 378 kts 85°
2026-05-06 18:07 56.58389 21.87011 20111 ft 376 kts 85°
2026-05-06 18:07 56.58786 21.91714 19724 ft 374 kts 85°
2026-05-06 18:07 56.59169 21.96278 19354 ft 373 kts 85°
2026-05-06 18:08 56.59558 22.00921 18972 ft 371 kts 85°
2026-05-06 18:08 56.59943 22.05549 18598 ft 370 kts 85°
2026-05-06 18:08 56.60326 22.10165 18220 ft 369 kts 85°
2026-05-06 18:08 56.60705 22.14762 17801 ft 367 kts 85°
2026-05-06 18:09 56.61081 22.19338 17406 ft 365 kts 85°
2026-05-06 18:09 56.61448 22.23831 17032 ft 363 kts 85°
2026-05-06 18:09 56.61815 22.28346 16661 ft 360 kts 85°
2026-05-06 18:09 56.62179 22.32835 16284 ft 358 kts 85°
2026-05-06 18:10 56.62539 22.37305 15917 ft 356 kts 85°
2026-05-06 18:10 56.62896 22.41752 15557 ft 354 kts 85°
2026-05-06 18:10 56.63248 22.46158 15193 ft 352 kts 85°
2026-05-06 18:10 56.63597 22.50550 14831 ft 350 kts 85°
2026-05-06 18:11 56.63944 22.54931 14452 ft 349 kts 85°
2026-05-06 18:11 56.64287 22.59290 14103 ft 348 kts 85°
2026-05-06 18:11 56.64629 22.63641 13741 ft 346 kts 85°
2026-05-06 18:11 56.64964 22.67936 13339 ft 345 kts 85°
2026-05-06 18:12 56.65299 22.72246 12958 ft 343 kts 85°
2026-05-06 18:12 56.65630 22.76530 12596 ft 341 kts 85°
2026-05-06 18:12 56.65957 22.80772 12249 ft 338 kts 85°
2026-05-06 18:12 56.66281 22.85001 11887 ft 336 kts 85°
2026-05-06 18:13 56.66600 22.89193 11534 ft 334 kts 85°
2026-05-06 18:13 56.66917 22.93362 11187 ft 332 kts 85°
2026-05-06 18:13 56.67231 22.97513 10837 ft 330 kts 85°
2026-05-06 18:13 56.67536 23.01572 10495 ft 328 kts 85°
2026-05-06 18:14 56.67844 23.05680 10144 ft 326 kts 86°
2026-05-06 18:14 56.68146 23.09738 9849 ft 322 kts 86°
2026-05-06 18:14 56.68446 23.13778 9473 ft 321 kts 85°
2026-05-06 18:14 56.68742 23.17784 9109 ft 318 kts 85°
2026-05-06 18:15 56.69035 23.21760 8773 ft 316 kts 85°
2026-05-06 18:15 56.69321 23.25669 8436 ft 305 kts 85°
2026-05-06 18:15 56.69596 23.29445 8127 ft 298 kts 85°
2026-05-06 18:15 56.69865 23.33151 7808 ft 291 kts 85°
2026-05-06 18:16 56.70126 23.36764 7510 ft 285 kts 85°
2026-05-06 18:16 56.70378 23.40255 7219 ft 278 kts 85°
2026-05-06 18:16 56.70546 23.42594 7020 ft 275 kts 85°
2026-05-06 18:17 56.70726 23.45111 6812 ft 274 kts 85°
2026-05-06 18:17 56.70970 23.48536 6512 ft 272 kts 85°
2026-05-06 18:17 56.71211 23.51939 6208 ft 270 kts 85°
2026-05-06 18:18 56.71449 23.55304 5891 ft 263 kts 85°
2026-05-06 18:18 56.71679 23.58562 5613 ft 255 kts 84°
2026-05-06 18:18 56.71902 23.61752 5344 ft 252 kts 84°
2026-05-06 18:18 56.72120 23.64864 5070 ft 250 kts 84°
2026-05-06 18:19 56.72337 23.67974 4823 ft 245 kts 84°
2026-05-06 18:19 56.72546 23.70981 4736 ft 234 kts 84°
2026-05-06 18:19 56.72746 23.73867 4595 ft 225 kts 84°
2026-05-06 18:19 56.72832 23.76688 4457 ft 216 kts 95°
2026-05-06 18:20 56.72700 23.79351 4345 ft 207 kts 95°
2026-05-06 18:20 56.72575 23.81903 4228 ft 197 kts 95°
2026-05-06 18:20 56.72455 23.84345 4114 ft 189 kts 95°
2026-05-06 18:20 56.72342 23.86664 4002 ft 185 kts 95°
2026-05-06 18:21 56.72227 23.88993 3898 ft 184 kts 95°
2026-05-06 18:21 56.72271 23.91311 3689 ft 185 kts 72°
2026-05-06 18:21 56.73048 23.93137 3467 ft 187 kts 36°
2026-05-06 18:21 56.74271 23.94036 3295 ft 193 kts 18°
2026-05-06 18:22 56.75616 23.94398 3091 ft 194 kts 10°
2026-05-06 18:22 56.76942 23.94583 2858 ft 188 kts 10°
2026-05-06 18:22 56.78234 23.94783 2600 ft 184 kts 11°
2026-05-06 18:22 56.79496 23.94993 2339 ft 180 kts 11°
2026-05-06 18:23 56.80319 23.95129 2173 ft 178 kts 11°
2026-05-06 18:23 56.81943 23.95397 1844 ft 173 kts 11°
2026-05-06 18:23 56.82728 23.95526 1700 ft 167 kts 11°
2026-05-06 18:23 56.83827 23.95703 1481 ft 154 kts 11°
2026-05-06 18:24 56.84847 23.95872 1284 ft 142 kts 11°
2026-05-06 18:24 56.85811 23.96034 1071 ft 137 kts 10°
2026-05-06 18:24 56.86757 23.96196 830 ft 137 kts
2026-05-06 18:24 56.87669 23.96314 635 ft 140 kts
2026-05-06 18:25 56.88638 23.96479 450 ft 140 kts
2026-05-06 18:25 56.89593 23.96646 277 ft 135 kts
2026-05-06 18:25 56.90512 23.96799 82 ft 130 kts
2026-05-06 18:25 56.91344 23.96945 49 ft 102 kts
2026-05-06 18:26 56.91877 23.97035 47 ft 68 kts
2026-05-06 18:26 56.92303 23.97116 47 ft 49 kts 15°
2026-05-06 18:26 56.92498 23.97295 47 ft 16 kts 33°
2026-05-06 18:26 56.92583 23.97403 46 ft 9 kts 35°
2026-05-06 18:27 56.92610 23.97514 47 ft 11 kts 104°
2026-05-06 18:27 56.92567 23.97541 43 ft 7 kts 182°
2026-05-06 18:27 56.92507 23.97532 44 ft 10 kts 186°
2026-05-06 18:27 56.92427 23.97518 47 ft 13 kts 186°
2026-05-06 18:28 56.92356 23.97564 47 ft 12 kts 105°
2026-05-06 18:28 56.92347 23.97730 47 ft 14 kts 95°
2026-05-06 18:28 56.92315 23.97827 47 ft 5 kts 186°
2026-05-06 18:28 56.92292 23.97821 47 ft 0 kts 185°